Regional Weather Roundup
Issued by NWS

Home | Current Version | Previous Version | Text Only | Print | Product List | Glossary On
Versions: 1 2 3 4 5 6 7 8 9 10 11 12 13 14 15 16 17 18 19 20 21 22 23 24 25 26 27 28 29 30 31 32 33 34 35 36 37 38 39 40 41 42 43 44 45 46 47 48 49 50
000
ASUS45 KSLC 070510
RWRUT

UTAH REGIONAL WEATHER ROUNDUP
NATIONAL WEATHER SERVICE SALT LAKE CITY UT
1000 PM MST FRI MAR 06 2015

UTZ001>011-023>025-070600-

NORTHERN UTAH

CITY           SKY/WX    TMP DP  RH WIND       PRES   REMARKS
BRIGHAM CITY   CLEAR     38  27  64 W3        30.39S
HILL AFB       NOT AVBL
LOGAN          CLEAR     38  26  62 S3        30.39S
OGDEN          CLEAR     38  26  62 S7        30.38R WCI  33
PROVO AIRPORT  CLEAR     36  27  69 CALM      30.38S
SALT LAKE CITY CLEAR     41  28  60 SW3       30.38S
VERNAL         CLEAR     33  23  66 NW6       30.38R WCI  28
WENDOVER       CLEAR     37  19  48 CALM      30.38S
HEBER CITY     CLEAR     32  23  69 CALM      30.40R
WEST JORDAN    CLEAR     37  25  60 CALM      30.39S

$$

UTZ012>022-026-027-070600-

SOUTHERN/CENTRAL UTAH

CITY           SKY/WX    TMP DP  RH WIND       PRES   REMARKS
BLANDING       CLEAR     36  28  73 N6        30.39S WCI  31
BRYCE CANYON   PTCLDY    13   7  77 W7        30.38S WCI   3
CEDAR CITY     CLEAR     32  25  75 CALM      30.33S
DELTA          CLEAR     37  26  65 N7        30.36S WCI  31
HANKSVILLE     CLEAR     36  21  55 CALM      30.37R
MILFORD        CLEAR     32  24  72 NW8       30.35S WCI  25
MOAB/CYNLANDS  CLEAR     37  20  50 CALM      30.33S
PRICE          CLEAR     35  24  64 N10       30.35S WCI  27
ST GEORGE      CLEAR     55  27  33 NE8       30.26S
KANAB          CLEAR     37  27  65 NW12      30.35S WCI  30

$$

REGIONAL REPORTS     COLORADO/ARIZONA

CITY           SKY/WX    TMP DP  RH WIND       PRES   REMARKS
CRAIG, CO      CLEAR     27  19  72 CALM      30.39S
GRAND JUNCTION CLEAR     37  20  50 E6        30.35R WCI  32
RIFLE          CLEAR     32  22  66 CALM      30.38R
MONTROSE       CLEAR     34  22  61 SE13      30.39R WCI  25
CORTEZ         CLEAR     30  24  78 NE5       30.33S WCI  25
PAGE, AZ       CLEAR     44  22  41 CALM      30.30S
GRAND CANYON   CLEAR     40   9  28 NE16      30.30F WCI  31
KINGMAN        CLEAR     49  27  42 E10       30.19R
FLAGSTAFF      CLEAR     39  15  37 E9        30.29R WCI  33

$$

REGIONAL REPORTS    NEVADA/IDAHO/WYOMING

CITY           SKY/WX    TMP DP  RH WIND       PRES   REMARKS
LAS VEGAS, NV  CLEAR     61  22  22 SW3       30.15R
ELY            CLEAR     31  22  69 S6        30.38R WCI  25
ELKO           CLEAR     36  16  44 CALM      30.36R
POCATELLO, ID  CLEAR     37  22  54 CALM      30.37S
BURLEY         CLEAR     33  15  47 S3        30.36R
EVANSTON, WY   CLEAR     34  19  54 S6        30.41S WCI  29
ROCK SPRINGS   CLEAR     32  18  56 SW12      30.37R WCI  23

$$


USA.gov is the U.S. government's official web portal to all federal, state and local government web resources and services.